Content
SEND FEEDBACK

Daily
Averages
Monthly
Summary
United States of America

NEW SALEM, MASSACHUSETTS


Home > North America > United States > Massachusetts
Elevation: 900 feet     Latitude: 42 28N     Longitude: 072 21W

WEATHER
 
SELECT A DAY
Number of Records: 212,494;   Date Range: 7/1/96 - 8/12/14
 
SHARE

PRINT THIS DATA

[ ← Previous Day ]
WEATHER ALMANAC - APRIL 1, 2014
[ Next Day → ]
[ °C ]   °F
Weather ElementAverageHighLow
Temperature40.6 °F54 °F (3:52 pm)30.9 °F (5:52 am)
Dewpoint27.3 °F35.1 °F (6:52 pm)23 °F (3:52 am)
Humidity60.9 %85 % (11:52 pm)37 % (4:52 pm)
Barometer30.06 in30.11 in (8:52 am)30.01 in (5:52 pm)
Wind Speed6.1 mph12.7 mph (7:52 am)
Weather ElementAverage
Visibility10 mi
Wind DirectionSSW (217.8 °)

Weather ElementTotal
Precipitation---
Heating Degree Days22.6 (Base 65)
Averaged from 23 records on April 1, 2014
WEATHER CONDITIONS BREAKOUT
WIND DIRECTION BREAKOUT
WEATHER BY HOUR - APRIL 1, 2014
[ °C ]   °F
Local TimeTemperatureDewpointHumidityBarometerVisibilityWind DirectionWind SpeedGust SpeedPrecipitationEventsConditions
1:52 AM34.0 °F24.1 °F67 %30.05 in10.0 miNNW (340°)11.5 mphClear
2:52 AM33.1 °F24.1 °F70 %30.06 in10.0 miNorth (350°)10.4 mphClear
3:52 AM32.0 °F23.0 °F69 %30.06 in10.0 miNorth (350°)8.1 mphClear
4:52 AM32.0 °F23.0 °F69 %30.07 in10.0 miNNW (340°)8.1 mphClear
5:52 AM30.9 °F23.0 °F72 %30.07 in10.0 miNNW (330°)5.8 mphClear
6:52 AM30.9 °F23.0 °F72 %30.08 in10.0 miNorth (350°)4.6 mphClear
7:52 AM33.1 °F23.0 °F66 %30.10 in10.0 miNNW (330°)12.7 mphClear
8:52 AM36.0 °F23.0 °F59 %30.11 in10.0 miNorth (360°)6.9 mphClear
9:52 AM39.0 °F24.1 °F55 %30.10 in10.0 miNNW (340°)8.1 mphClear
10:52 AM42.1 °F26.1 °F53 %30.09 in10.0 miNW (310°)11.5 mphClear
11:52 AM46.0 °F27.0 °F47 %30.08 in10.0 miNW (320°)10.4 mphClear
12:52 PM48.0 °F27.0 °F44 %30.06 in10.0 miWNW (300°)6.9 mphClear
1:52 PM50.0 °F28.0 °F43 %30.05 in10.0 miWNW (290°)8.1 mphClear
2:52 PM52.0 °F28.9 °F41 %30.03 in10.0 miWNW (300°)8.1 mphClear
3:52 PM54.0 °F28.9 °F38 %30.03 in10.0 miNNW (330°)8.1 mphClear
4:52 PM54.0 °F28.0 °F37 %30.02 in10.0 miNorth (10°)4.6 mphClear
5:52 PM52.0 °F28.9 °F41 %30.01 in10.0 miENE (60°)5.8 mphClear
6:52 PM46.9 °F35.1 °F63 %30.02 in10.0 miCalmClear
7:52 PM41.0 °F33.1 °F73 %30.04 in10.0 miCalmClear
8:52 PM39.0 °F32.0 °F76 %30.07 in10.0 miCalmClear
9:52 PM37.9 °F32.0 °F79 %30.09 in10.0 miCalmClear
10:52 PM37.0 °F32.0 °F82 %30.09 in10.0 miCalmClear
11:52 PM34.0 °F30.0 °F85 %30.09 in10.0 miCalmClear
Hourly data recorded from KORE, located miles away from New Salem, Massachusetts







STORIES FROM OUR PARTNERS